Location: Casteau
(50.5142°N, 4.0161°E)
Time: 00:06:26
(UTC+00:00)

S-56A Canister/Altair - Pass Details

Date: 10 August 2021
Orbit: 632 x 2500 km, 38.9° (Epoch: 16 September)

Event Time Altitude Azimuth Distance (km) Brightness Sun altitude
Rises 18:25:40 0° 278° (W) 5,901 14.4 6.1°
Reaches altitude 10° 18:30:44 10° 265° (W) 5,057 13.2 5.4°
Maximum altitude 18:40:21 21° 224° (SW) 4,281 11.7 3.9°
Drops below altitude 10° 18:49:56 10° 183° (S) 4,986 11.5 2.5°
Sets 18:54:57 0° 169° (SSE) 5,795 11.7 1.8°
